Tracking 22079 objects as of 5-Dec-2020
HD Live streaming from Space Station
objects crossing your sky now

INTELSAT 3-F8

Track INTELSAT 3-F8 now!
INTELSAT 3-F8 is classified as:


NORAD ID: 4478
Int'l Code: 1970-055A
Perigee: 33,875.4 km
Apogee: 36,612.0 km
Inclination: 0.6 °
Period: 1,408.1 minutes
Semi major axis: 41614 km
RCS: 2.5127 m2 (large)
Launch date: July 23, 1970
Source: International Telecommunications Satellite Organization (ITSO)
Launch site: AIR FORCE EASTERN TEST RANGE (AFETR)
aabbcc
Your satellite tracking list
Your tracking list is empty




NASA's NSSDC Master Catalog

Two Line Element Set (TLE):
1 04478U 70055A   20339.87369403 -.00000215  00000-0  00000-0 0  9996
2 04478   0.6040  64.1381 0328796  79.5441 137.7463  1.02266274102164
Source of the keplerian elements: AFSPC